Data start date =,5/18/1934
Data end date/time =,5/4/2024 12:00
Vertical Datum =,MSL1912
""
Date/Time,LockDam_04
,Elev
UTC,ft
,Ave
5/19/1934 12:00,656.73
5/20/1934 12:00,656.73
5/21/1934 12:00,656.69
5/22/1934 12:00,656.64
5/23/1934 12:00,656.48
5/24/1934 12:00,656.43
5/25/1934 12:00,656.38
5/26/1934 12:00,656.31
5/27/1934 12:00,656.27
5/28/1934 12:00,656.20
5/29/1934 12:00,656.09
5/30/1934 12:00,655.93
5/31/1934 12:00,655.86
6/1/1934 12:00,655.77
6/2/1934 12:00,655.69
6/3/1934 12:00,655.64
6/4/1934 12:00,655.56
6/5/1934 12:00,655.46
6/6/1934 12:00,655.33
6/7/1934 12:00,655.22
6/8/1934 12:00,655.18
6/9/1934 12:00,655.51
6/10/1934 12:00,655.65
6/11/1934 12:00,655.57
6/12/1934 12:00,655.60
6/13/1934 12:00,655.45
6/14/1934 12:00,655.37
6/15/1934 12:00,655.36
6/16/1934 12:00,655.23
6/17/1934 12:00,655.22
6/18/1934 12:00,655.26
6/19/1934 12:00,655.22
6/20/1934 12:00,655.15
6/21/1934 12:00,655.26
6/22/1934 12:00,655.17
6/23/1934 12:00,655.16
6/24/1934 12:00,655.14
6/25/1934 12:00,655.05
6/26/1934 12:00,655.04
6/27/1934 12:00,655.10
6/28/1934 12:00,655.14
6/29/1934 12:00,655.15
6/30/1934 12:00,655.17
7/1/1934 12:00,655.14
7/2/1934 12:00,655.09
7/3/1934 12:00,654.99
7/4/1934 12:00,654.94
7/5/1934 12:00,654.90
7/6/1934 12:00,654.86
7/7/1934 12:00,654.78
7/8/1934 12:00,654.63
7/9/1934 12:00,654.57
7/10/1934 12:00,654.57
7/11/1934 12:00,654.60
7/12/1934 12:00,654.63
7/13/1934 12:00,654.61
7/14/1934 12:00,654.64
7/15/1934 12:00,654.65
7/16/1934 12:00,654.63
7/17/1934 12:00,654.59
7/18/1934 12:00,654.53
7/19/1934 12:00,654.49
7/20/1934 12:00,654.49
7/21/1934 12:00,654.50
7/22/1934 12:00,654.48
7/23/1934 12:00,654.44
7/24/1934 12:00,654.30
7/25/1934 12:00,654.25
7/26/1934 12:00,654.22
7/27/1934 12:00,654.20
7/28/1934 12:00,654.18
7/29/1934 12:00,654.14
7/30/1934 12:00,653.96
7/31/1934 12:00,653.80
8/1/1934 12:00,653.72
8/2/1934 12:00,653.66
8/3/1934 12:00,653.68
8/4/1934 12:00,653.60
8/5/1934 12:00,653.62
8/6/1934 12:00,653.56
8/7/1934 12:00,653.63
8/8/1934 12:00,653.62
8/9/1934 12:00,653.89
8/10/1934 12:00,653.98
8/11/1934 12:00,654.30
8/12/1934 12:00,654.78
8/13/1934 12:00,655.68
8/14/1934 12:00,655.56
8/15/1934 12:00,655.45
8/16/1934 12:00,655.34
8/17/1934 12:00,655.34
8/18/1934 12:00,655.30
8/19/1934 12:00,655.48
8/20/1934 12:00,655.44
8/21/1934 12:00,655.38
8/22/1934 12:00,655.32
8/23/1934 12:00,655.28
8/24/1934 12:00,655.34
8/25/1934 12:00,655.34
8/26/1934 12:00,655.30
8/27/1934 12:00,655.28
8/28/1934 12:00,655.24
8/29/1934 12:00,655.22
8/30/1934 12:00,655.22
8/31/1934 12:00,655.24
9/1/1934 12:00,655.30
9/2/1934 12:00,655.38
9/3/1934 12:00,655.40
9/4/1934 12:00,655.42
9/5/1934 12:00,655.43
9/6/1934 12:00,655.40
9/7/1934 12:00,655.50
9/8/1934 12:00,655.18
9/9/1934 12:00,655.18
9/10/1934 12:00,655.14
9/11/1934 12:00,655.06
9/12/1934 12:00,655.14
9/13/1934 12:00,655.18
9/14/1934 12:00,655.22
9/15/1934 12:00,655.26
9/16/1934 12:00,655.30
9/17/1934 12:00,655.24
9/18/1934 12:00,655.30
9/19/1934 12:00,655.28
9/20/1934 12:00,655.28
9/21/1934 12:00,655.30
9/22/1934 12:00,655.30
9/23/1934 12:00,655.26
9/24/1934 12:00,655.34
9/25/1934 12:00,656.06
9/26/1934 12:00,657.58
9/27/1934 12:00,658.58
9/28/1934 12:00,658.96
9/29/1934 12:00,659.46
9/30/1934 12:00,660.20
10/1/1934 12:00,660.62
10/2/1934 12:00,660.90
10/3/1934 12:00,660.88
10/4/1934 12:00,660.44
10/5/1934 12:00,660.10
10/6/1934 12:00,660.70
10/7/1934 12:00,659.64
10/8/1934 12:00,659.20
10/9/1934 12:00,658.74
10/10/1934 12:00,658.60
10/11/1934 12:00,658.50
10/12/1934 12:00,658.28
10/13/1934 12:00,658.10
10/14/1934 12:00,657.90
10/15/1934 12:00,657.66
10/16/1934 12:00,657.36
10/17/1934 12:00,657.32
10/18/1934 12:00,657.20
10/19/1934 12:00,656.96
10/20/1934 12:00,657.10
10/21/1934 12:00,657.66
10/22/1934 12:00,657.92
10/23/1934 12:00,658.00
10/24/1934 12:00,658.28
10/25/1934 12:00,658.66
10/26/1934 12:00,659.00
10/27/1934 12:00,659.24
10/28/1934 12:00,659.40
10/29/1934 12:00,659.38
10/30/1934 12:00,659.28
10/31/1934 12:00,659.06
11/1/1934 12:00,658.92
11/2/1934 12:00,658.66
11/3/1934 12:00,658.52
11/4/1934 12:00,658.54
11/5/1934 12:00,658.40
11/6/1934 12:00,658.10
11/7/1934 12:00,658.10
11/8/1934 12:00,658.10
11/9/1934 12:00,658.00
11/10/1934 12:00,658.00
11/11/1934 12:00,657.90
11/12/1934 12:00,657.68
11/13/1934 12:00,657.48
11/14/1934 12:00,657.38
11/15/1934 12:00,657.42
11/16/1934 12:00,657.18
11/17/1934 12:00,657.08
11/18/1934 12:00,657.06
11/19/1934 12:00,657.10
11/20/1934 12:00,657.06
11/21/1934 12:00,657.38
11/22/1934 12:00,657.68
11/23/1934 12:00,658.10
11/24/1934 12:00,658.46
11/25/1934 12:00,658.86
11/26/1934 12:00,659.28
11/27/1934 12:00,659.50
11/28/1934 12:00,659.52
11/29/1934 12:00,659.48
11/30/1934 12:00,659.44
12/1/1934 12:00,659.50
12/2/1934 12:00,659.54
12/3/1934 12:00,659.46
12/4/1934 12:00,659.22
12/5/1934 12:00,658.90
12/6/1934 12:00,658.58
12/7/1934 12:00,658.34
12/8/1934 12:00,658.15
12/9/1934 12:00,657.96
12/10/1934 12:00,657.90
12/11/1934 12:00,657.62
12/12/1934 12:00,657.58
12/13/1934 12:00,657.40
12/14/1934 12:00,657.44
12/15/1934 12:00,657.80
12/16/1934 12:00,658.06
12/17/1934 12:00,658.04
12/18/1934 12:00,657.84
12/19/1934 12:00,657.66
12/20/1934 12:00,657.66
12/21/1934 12:00,657.60
12/22/1934 12:00,657.76
12/23/1934 12:00,657.86
12/24/1934 12:00,659.30
12/25/1934 12:00,659.28
12/26/1934 12:00,659.24
12/27/1934 12:00,658.28
12/28/1934 12:00,658.20
12/29/1934 12:00,658.80
12/30/1934 12:00,659.30
12/31/1934 12:00,659.58
1/1/1935 12:00,659.74
1/2/1935 12:00,659.50
1/3/1935 12:00,659.10
1/4/1935 12:00,658.70
1/5/1935 12:00,658.58
1/6/1935 12:00,658.58
1/7/1935 12:00,658.14
1/8/1935 12:00,657.66
1/9/1935 12:00,657.30
1/10/1935 12:00,657.18
1/11/1935 12:00,657.10
1/12/1935 12:00,657.00
1/13/1935 12:00,657.38
1/14/1935 12:00,657.56
1/15/1935 12:00,658.04
1/16/1935 12:00,657.44
1/17/1935 12:00,657.68
1/18/1935 12:00,658.26
1/19/1935 12:00,658.14
1/20/1935 12:00,657.98
1/21/1935 12:00,658.12
1/22/1935 12:00,658.50
1/23/1935 12:00,658.62
1/24/1935 12:00,658.58
1/25/1935 12:00,658.68
1/26/1935 12:00,658.68
1/27/1935 12:00,658.50
1/28/1935 12:00,658.36
1/29/1935 12:00,658.20
1/30/1935 12:00,657.90
1/31/1935 12:00,657.72
2/1/1935 12:00,657.56
2/2/1935 12:00,657.36
2/3/1935 12:00,657.14
2/4/1935 12:00,656.98
2/5/1935 12:00,656.74
2/6/1935 12:00,656.66
2/7/1935 12:00,656.74
2/8/1935 12:00,656.76
2/9/1935 12:00,656.78
2/10/1935 12:00,656.74
2/11/1935 12:00,656.68
2/12/1935 12:00,656.58
2/13/1935 12:00,656.58
2/14/1935 12:00,656.62
2/15/1935 12:00,656.70
2/16/1935 12:00,656.78
2/17/1935 12:00,656.90
2/18/1935 12:00,656.90
2/19/1935 12:00,656.88
2/20/1935 12:00,656.90
2/21/1935 12:00,656.98
2/22/1935 12:00,657.00
2/23/1935 12:00,657.08
2/24/1935 12:00,657.12
2/25/1935 12:00,657.10
2/26/1935 12:00,656.82
2/27/1935 12:00,656.84
2/28/1935 12:00,656.96
3/1/1935 12:00,657.00
3/2/1935 12:00,657.02
3/3/1935 12:00,657.08
3/4/1935 12:00,657.14
3/5/1935 12:00,657.14
3/6/1935 12:00,657.26
3/7/1935 12:00,657.46
3/8/1935 12:00,657.52
3/9/1935 12:00,657.62
3/10/1935 12:00,657.76
3/11/1935 12:00,657.92
3/12/1935 12:00,657.90
3/13/1935 12:00,658.00
3/14/1935 12:00,658.46
3/15/1935 12:00,658.66
3/16/1935 12:00,659.02
3/17/1935 12:00,659.64
3/18/1935 12:00,660.20
3/19/1935 12:00,660.44
3/20/1935 12:00,660.62
3/21/1935 12:00,661.18
3/22/1935 12:00,661.74
3/23/1935 12:00,662.22
3/24/1935 12:00,663.00
3/25/1935 12:00,664.90
3/26/1935 12:00,666.40
3/27/1935 12:00,667.10
3/28/1935 12:00,667.14
3/29/1935 12:00,667.04
3/30/1935 12:00,666.72
3/31/1935 12:00,666.40
4/1/1935 12:00,665.86
4/2/1935 12:00,665.42
4/3/1935 12:00,665.04
4/4/1935 12:00,664.50
4/5/1935 12:00,664.12
4/6/1935 12:00,663.86
4/7/1935 12:00,663.40
4/8/1935 12:00,663.02
4/9/1935 12:00,662.58
4/10/1935 12:00,662.26
4/11/1935 12:00,662.04
4/12/1935 12:00,661.92
4/13/1935 12:00,661.76
4/14/1935 12:00,661.68
4/15/1935 12:00,661.66
4/16/1935 12:00,661.52
4/17/1935 12:00,661.22
4/18/1935 12:00,661.00
4/19/1935 12:00,660.88
4/20/1935 12:00,660.74
4/21/1935 12:00,660.64
4/22/1935 12:00,660.50
4/23/1935 12:00,660.16
4/24/1935 12:00,660.10
4/25/1935 12:00,660.00
4/26/1935 12:00,660.00
4/27/1935 12:00,660.04
4/28/1935 12:00,660.04
4/29/1935 12:00,660.05
4/30/1935 12:00,659.90
5/1/1935 12:00,659.72
5/2/1935 12:00,659.66
5/3/1935 12:00,659.83
5/4/1935 12:00,659.98
5/5/1935 12:00,660.18
5/6/1935 12:00,660.18
5/7/1935 12:00,660.19
5/8/1935 12:00,660.26
5/9/1935 12:00,660.45
5/10/1935 12:00,660.60
5/11/1935 12:00,660.80
5/12/1935 12:00,661.04
5/13/1935 12:00,661.55
5/14/1935 12:00,661.58
5/15/1935 12:00,661.59
5/16/1935 12:00,661.80
5/17/1935 12:00,661.94
5/18/1935 12:00,662.00
5/19/1935 12:00,661.94
5/20/1935 12:00,661.79
5/21/1935 12:00,661.53
5/22/1935 12:00,661.36
5/23/1935 12:00,661.26
5/24/1935 12:00,661.15
5/25/1935 12:00,660.99
5/26/1935 12:00,661.11
5/27/1935 12:00,661.55
5/28/1935 12:00,661.94
5/29/1935 12:00,663.81
5/30/1935 12:00,665.00
5/31/1935 12:00,665.75
6/1/1935 12:00,665.86
6/2/1935 12:00,665.97
6/3/1935 12:00,665.56
6/4/1935 12:00,665.58
6/5/1935 12:00,665.55
6/6/1935 12:00,665.64
6/7/1935 12:00,665.60
6/8/1935 12:00,665.70
6/9/1935 12:00,665.62
6/10/1935 12:00,665.68
6/11/1935 12:00,665.65
6/12/1935 12:00,665.65
6/13/1935 12:00,665.65
6/14/1935 12:00,665.65
6/15/1935 12:00,665.70
6/16/1935 12:00,665.90
6/17/1935 12:00,665.60
6/18/1935 12:00,665.40
6/19/1935 12:00,665.65
6/20/1935 12:00,665.60
6/21/1935 12:00,665.60
6/22/1935 12:00,665.75
6/23/1935 12:00,665.63
6/24/1935 12:00,665.55
6/25/1935 12:00,664.66
6/26/1935 12:00,664.20
6/27/1935 12:00,663.35
6/28/1935 12:00,662.20
6/29/1935 12:00,663.00
6/30/1935 12:00,664.75
7/1/1935 12:00,664.62
7/2/1935 12:00,664.60
7/3/1935 12:00,664.62
7/4/1935 12:00,664.25
7/5/1935 12:00,662.70
7/6/1935 12:00,662.15
7/7/1935 12:00,662.35
7/8/1935 12:00,662.65
7/9/1935 12:00,663.05
7/10/1935 12:00,663.55
7/11/1935 12:00,663.50
7/12/1935 12:00,663.20
7/13/1935 12:00,662.75
7/14/1935 12:00,662.35
7/15/1935 12:00,662.10
7/16/1935 12:00,662.00
7/17/1935 12:00,661.96
7/18/1935 12:00,663.53
7/19/1935 12:00,663.82
7/20/1935 12:00,664.65
7/21/1935 12:00,665.20
7/22/1935 12:00,665.73
7/23/1935 12:00,666.20
7/24/1935 12:00,665.93
7/25/1935 12:00,665.88
7/26/1935 12:00,666.15
7/27/1935 12:00,666.15
7/28/1935 12:00,666.08
7/29/1935 12:00,666.13
7/30/1935 12:00,666.20
7/31/1935 12:00,666.20
8/1/1935 12:00,666.20
8/2/1935 12:00,666.20
8/3/1935 12:00,666.20
8/4/1935 12:00,666.20
8/5/1935 12:00,666.20
8/6/1935 12:00,666.00
8/7/1935 12:00,665.98
8/8/1935 12:00,665.40
8/9/1935 12:00,665.36
8/10/1935 12:00,665.40
8/11/1935 12:00,664.50
8/12/1935 12:00,665.05
8/13/1935 12:00,665.52
8/14/1935 12:00,665.82
8/15/1935 12:00,666.15
8/16/1935 12:00,666.17
8/17/1935 12:00,666.20
8/18/1935 12:00,666.20
8/19/1935 12:00,666.20
8/20/1935 12:00,666.25
8/21/1935 12:00,665.90
8/22/1935 12:00,665.90
8/23/1935 12:00,665.90
8/24/1935 12:00,665.90
8/25/1935 12:00,666.00
8/26/1935 12:00,665.88
8/27/1935 12:00,666.00
8/28/1935 12:00,666.00
8/29/1935 12:00,666.00
8/30/1935 12:00,666.00
8/31/1935 12:00,666.05
9/1/1935 12:00,666.00
9/2/1935 12:00,666.00
9/3/1935 12:00,665.97
9/4/1935 12:00,666.00
9/5/1935 12:00,666.00
9/6/1935 12:00,666.10
9/7/1935 12:00,666.15
9/8/1935 12:00,666.15
9/9/1935 12:00,666.15
9/10/1935 12:00,666.15
9/11/1935 12:00,666.15
9/12/1935 12:00,666.15
9/13/1935 12:00,666.20
9/14/1935 12:00,666.22
9/15/1935 12:00,666.20
9/16/1935 12:00,666.20
9/17/1935 12:00,666.20
9/18/1935 12:00,666.20
9/19/1935 12:00,666.20
9/20/1935 12:00,666.20
9/21/1935 12:00,666.15
9/22/1935 12:00,666.20
9/23/1935 12:00,666.15
9/24/1935 12:00,666.20
9/25/1935 12:00,666.15
9/26/1935 12:00,666.25
9/27/1935 12:00,666.25
9/28/1935 12:00,666.25
9/29/1935 12:00,666.22
9/30/1935 12:00,666.25
10/1/1935 12:00,666.10
10/2/1935 12:00,666.00
10/3/1935 12:00,666.15
10/4/1935 12:00,666.00
10/5/1935 12:00,666.00
10/6/1935 12:00,665.75
10/7/1935 12:00,665.53
10/8/1935 12:00,665.40
10/9/1935 12:00,665.30
10/10/1935 12:00,665.38
10/11/1935 12:00,665.20
10/12/1935 12:00,665.10
10/13/1935 12:00,665.18
10/14/1935 12:00,665.20
10/15/1935 12:00,665.20
10/16/1935 12:00,665.12
10/17/1935 12:00,665.70
10/18/1935 12:00,666.00
10/19/1935 12:00,666.20
10/20/1935 12:00,666.35
10/21/1935 12:00,666.30
10/22/1935 12:00,666.20
10/23/1935 12:00,665.95
10/24/1935 12:00,666.20
10/25/1935 12:00,666.25
10/26/1935 12:00,666.25
10/27/1935 12:00,666.45
10/28/1935 12:00,666.45
10/29/1935 12:00,666.40
10/30/1935 12:00,666.35
10/31/1935 12:00,666.40
11/1/1935 12:00,666.65
11/2/1935 12:00,666.25
11/3/1935 12:00,666.00
11/4/1935 12:00,666.00
11/5/1935 12:00,665.92
11/6/1935 12:00,665.65
11/7/1935 12:00,665.50
11/8/1935 12:00,665.45
11/9/1935 12:00,665.60
11/10/1935 12:00,665.90
11/11/1935 12:00,666.20
11/12/1935 12:00,666.20
11/13/1935 12:00,666.20
11/14/1935 12:00,666.20
11/15/1935 12:00,666.20
11/16/1935 12:00,666.20
11/17/1935 12:00,666.20
11/18/1935 12:00,666.20
11/19/1935 12:00,666.20
11/20/1935 12:00,666.20
11/21/1935 12:00,666.20
11/22/1935 12:00,666.15
11/23/1935 12:00,666.20
11/24/1935 12:00,666.20
11/25/1935 12:00,666.20
11/26/1935 12:00,666.12
11/27/1935 12:00,666.25
11/28/1935 12:00,666.30
11/29/1935 12:00,666.25
11/30/1935 12:00,666.00
12/1/1935 12:00,666.20
12/2/1935 12:00,666.08
12/3/1935 12:00,666.10
12/4/1935 12:00,666.20
12/5/1935 12:00,666.20
12/6/1935 12:00,666.20
12/7/1935 12:00,666.20
12/8/1935 12:00,666.20
12/9/1935 12:00,666.20
12/10/1935 12:00,666.20
12/11/1935 12:00,666.20
12/12/1935 12:00,666.20
12/13/1935 12:00,666.20
12/14/1935 12:00,666.15
12/15/1935 12:00,666.15
12/16/1935 12:00,666.15
12/17/1935 12:00,666.15
12/18/1935 12:00,666.17
12/19/1935 12:00,666.20
12/20/1935 12:00,666.14
12/21/1935 12:00,666.20
12/22/1935 12:00,666.20
12/23/1935 12:00,666.20
12/24/1935 12:00,666.26
12/25/1935 12:00,666.30
12/26/1935 12:00,666.25
12/27/1935 12:00,666.30
12/28/1935 12:00,666.30
12/29/1935 12:00,666.30
12/30/1935 12:00,666.30
12/31/1935 12:00,666.30
1/1/1936 12:00,666.30
1/2/1936 12:00,666.36
1/3/1936 12:00,666.32
1/4/1936 12:00,666.39
1/5/1936 12:00,666.40
1/6/1936 12:00,666.40
1/7/1936 12:00,666.38
1/8/1936 12:00,666.40
1/9/1936 12:00,666.40
1/10/1936 12:00,666.40
1/11/1936 12:00,666.43
1/12/1936 12:00,666.39
1/13/1936 12:00,666.38
1/14/1936 12:00,666.40
1/15/1936 12:00,666.37
1/16/1936 12:00,666.40
1/17/1936 12:00,666.42
1/18/1936 12:00,666.43
1/19/1936 12:00,666.38
1/20/1936 12:00,666.38
1/21/1936 12:00,666.40
1/22/1936 12:00,666.37
1/23/1936 12:00,666.40
1/24/1936 12:00,666.40
1/25/1936 12:00,666.37
1/26/1936 12:00,666.38
1/27/1936 12:00,666.40
1/28/1936 12:00,666.39
1/29/1936 12:00,666.42
1/30/1936 12:00,666.40
1/31/1936 12:00,666.38
2/1/1936 12:00,666.42
2/2/1936 12:00,666.39
2/3/1936 12:00,666.44
2/4/1936 12:00,666.42
2/5/1936 12:00,666.35
2/6/1936 12:00,666.43
2/7/1936 12:00,666.41
2/8/1936 12:00,666.42
2/9/1936 12:00,666.39
2/10/1936 12:00,666.40
2/11/1936 12:00,666.39
2/12/1936 12:00,666.37
2/13/1936 12:00,666.41
2/14/1936 12:00,666.44
2/15/1936 12:00,666.40
2/16/1936 12:00,666.40
2/17/1936 12:00,666.40
2/18/1936 12:00,666.38
2/19/1936 12:00,666.40
2/20/1936 12:00,666.40
2/21/1936 12:00,666.42
2/22/1936 12:00,666.40
2/23/1936 12:00,666.41
2/24/1936 12:00,666.38
2/25/1936 12:00,666.38
2/26/1936 12:00,666.28
2/27/1936 12:00,666.34
2/28/1936 12:00,666.21
2/29/1936 12:00,666.24
3/1/1936 12:00,666.17
3/2/1936 12:00,666.18
3/3/1936 12:00,666.11
3/4/1936 12:00,666.16
3/5/1936 12:00,666.20
3/6/1936 12:00,666.20
3/7/1936 12:00,666.23
3/8/1936 12:00,666.22
3/9/1936 12:00,666.17
3/10/1936 12:00,666.20
3/11/1936 12:00,666.31
3/12/1936 12:00,666.44
3/13/1936 12:00,666.58
3/14/1936 12:00,666.62
3/15/1936 12:00,666.10
3/16/1936 12:00,665.78
3/17/1936 12:00,665.65
3/18/1936 12:00,665.57
3/19/1936 12:00,665.70
3/20/1936 12:00,665.60
3/21/1936 12:00,666.19
3/22/1936 12:00,666.40
3/23/1936 12:00,665.60
3/24/1936 12:00,665.20
3/25/1936 12:00,665.70
3/26/1936 12:00,667.24
3/27/1936 12:00,667.54
3/28/1936 12:00,667.62
3/29/1936 12:00,667.93
3/30/1936 12:00,667.66
3/31/1936 12:00,667.43
4/1/1936 12:00,667.32
4/2/1936 12:00,667.10
4/3/1936 12:00,666.76
4/4/1936 12:00,666.52
4/5/1936 12:00,666.22
4/6/1936 12:00,665.90
4/7/1936 12:00,665.58
4/8/1936 12:00,665.32
4/9/1936 12:00,665.06
4/10/1936 12:00,664.85
4/11/1936 12:00,664.79
4/12/1936 12:00,664.88
4/13/1936 12:00,665.20
4/14/1936 12:00,666.05
4/15/1936 12:00,667.18
4/16/1936 12:00,667.86
4/17/1936 12:00,668.18
4/18/1936 12:00,668.33
4/19/1936 12:00,668.35
4/20/1936 12:00,668.15
4/21/1936 12:00,667.74
4/22/1936 12:00,667.30
4/23/1936 12:00,666.81
4/24/1936 12:00,666.35
4/25/1936 12:00,665.97
4/26/1936 12:00,665.64
4/27/1936 12:00,665.27
4/28/1936 12:00,664.84
4/29/1936 12:00,664.57
4/30/1936 12:00,664.29
5/1/1936 12:00,664.24
5/2/1936 12:00,664.33
5/3/1936 12:00,664.46
5/4/1936 12:00,664.60
5/5/1936 12:00,664.88
5/6/1936 12:00,664.92
5/7/1936 12:00,664.96
5/8/1936 12:00,665.07
5/9/1936 12:00,665.58
5/10/1936 12:00,666.50
5/11/1936 12:00,666.94
5/12/1936 12:00,666.76
5/13/1936 12:00,666.52
5/14/1936 12:00,666.12
5/15/1936 12:00,665.80
5/16/1936 12:00,665.43
5/17/1936 12:00,665.18
5/18/1936 12:00,664.94
5/19/1936 12:00,664.64
5/20/1936 12:00,664.32
5/21/1936 12:00,663.96
5/22/1936 12:00,663.66
5/23/1936 12:00,663.44
5/24/1936 12:00,663.20
5/25/1936 12:00,662.97
5/26/1936 12:00,663.02
5/27/1936 12:00,662.94
5/28/1936 12:00,663.00
5/29/1936 12:00,663.03
5/30/1936 12:00,663.02
5/31/1936 12:00,662.99
6/1/1936 12:00,663.52
6/2/1936 12:00,664.05
6/3/1936 12:00,664.40
6/4/1936 12:00,664.81
6/5/1936 12:00,665.29
6/6/1936 12:00,665.50
6/7/1936 12:00,665.50
6/8/1936 12:00,665.47
6/9/1936 12:00,665.64
6/10/1936 12:00,665.60
6/11/1936 12:00,665.72
6/12/1936 12:00,665.70
6/13/1936 12:00,665.76
6/14/1936 12:00,665.85
6/15/1936 12:00,665.88
6/16/1936 12:00,665.90
6/17/1936 12:00,666.00
6/18/1936 12:00,666.08
6/19/1936 12:00,666.23
6/20/1936 12:00,666.29
6/21/1936 12:00,666.29
6/22/1936 12:00,666.29
6/23/1936 12:00,666.17
6/24/1936 12:00,666.07
6/25/1936 12:00,665.94
6/26/1936 12:00,665.89
6/27/1936 12:00,665.86
6/28/1936 12:00,665.87
6/29/1936 12:00,665.70
6/30/1936 12:00,665.61
7/1/1936 12:00,665.49
7/2/1936 12:00,665.61
7/3/1936 12:00,665.51
7/4/1936 12:00,665.48
7/5/1936 12:00,665.38
7/6/1936 12:00,665.25
7/7/1936 12:00,665.27
7/8/1936 12:00,665.26
7/9/1936 12:00,665.26
7/10/1936 12:00,665.23
7/11/1936 12:00,665.37
7/12/1936 12:00,665.41
7/13/1936 12:00,665.37
7/14/1936 12:00,665.27
7/15/1936 12:00,665.17
7/16/1936 12:00,665.21
7/17/1936 12:00,665.21
7/18/1936 12:00,665.22
7/19/1936 12:00,665.26
7/20/1936 12:00,665.24
7/21/1936 12:00,665.26
7/22/1936 12:00,665.42
7/23/1936 12:00,665.52
7/24/1936 12:00,665.61
7/25/1936 12:00,665.65
7/26/1936 12:00,665.68
7/27/1936 12:00,665.73
7/28/1936 12:00,665.74
7/29/1936 12:00,665.78
7/30/1936 12:00,665.85
7/31/1936 12:00,665.91
8/1/1936 12:00,665.91
8/2/1936 12:00,665.95
8/3/1936 12:00,666.02
8/4/1936 12:00,666.10
8/5/1936 12:00,666.13
8/6/1936 12:00,666.17
8/7/1936 12:00,666.18
8/8/1936 12:00,666.14
8/9/1936 12:00,666.13
8/10/1936 12:00,666.23
8/11/1936 12:00,666.17
8/12/1936 12:00,666.15
8/13/1936 12:00,666.14
8/14/1936 12:00,666.12
8/15/1936 12:00,666.26
8/16/1936 12:00,666.36
8/17/1936 12:00,666.32
8/18/1936 12:00,666.11
8/19/1936 12:00,666.30
8/20/1936 12:00,666.33
8/21/1936 12:00,666.61
8/22/1936 12:00,666.69
8/23/1936 12:00,666.75
8/24/1936 12:00,666.76
8/25/1936 12:00,666.58
8/26/1936 12:00,666.83
8/27/1936 12:00,666.83
8/28/1936 12:00,666.79
8/29/1936 12:00,666.66
8/30/1936 12:00,666.69
8/31/1936 12:00,666.67
9/1/1936 12:00,666.74
9/2/1936 12:00,666.83
9/3/1936 12:00,666.76
9/4/1936 12:00,666.74
9/5/1936 12:00,666.74
9/6/1936 12:00,666.70
9/7/1936 12:00,666.76
9/8/1936 12:00,666.71
9/9/1936 12:00,666.70
9/10/1936 12:00,666.71
9/11/1936 12:00,666.75
9/12/1936 12:00,666.76
9/13/1936 12:00,666.71
9/14/1936 12:00,666.75
9/15/1936 12:00,666.86
9/16/1936 12:00,666.67
9/17/1936 12:00,666.71
9/18/1936 12:00,666.75
9/19/1936 12:00,666.74
9/20/1936 12:00,666.97
9/21/1936 12:00,666.73
9/22/1936 12:00,666.70
9/23/1936 12:00,666.73
9/24/1936 12:00,666.68
9/25/1936 12:00,666.59
9/26/1936 12:00,666.75
9/27/1936 12:00,666.75
9/28/1936 12:00,666.72
9/29/1936 12:00,666.70
9/30/1936 12:00,666.68
10/1/1936 12:00,666.73
10/2/1936 12:00,666.70
10/3/1936 12:00,666.76
10/4/1936 12:00,666.75
10/5/1936 12:00,666.84
10/6/1936 12:00,666.77
10/7/1936 12:00,666.73
10/8/1936 12:00,666.75
10/9/1936 12:00,666.77
10/10/1936 12:00,666.96
10/11/1936 12:00,666.82
10/12/1936 12:00,666.80
10/13/1936 12:00,666.71
10/14/1936 12:00,666.79
10/15/1936 12:00,666.77
10/16/1936 12:00,666.82
10/17/1936 12:00,666.80
10/18/1936 12:00,666.74
10/19/1936 12:00,666.74
10/20/1936 12:00,666.74
10/21/1936 12:00,666.87
10/22/1936 12:00,666.85
10/23/1936 12:00,666.80
10/24/1936 12:00,666.82
10/25/1936 12:00,666.82
10/26/1936 12:00,666.90
10/27/1936 12:00,666.75
10/28/1936 12:00,666.80
10/29/1936 12:00,666.87
10/30/1936 12:00,666.81
10/31/1936 12:00,666.66
11/1/1936 12:00,666.80
11/2/1936 12:00,666.88
11/3/1936 12:00,667.15
11/4/1936 12:00,666.82
11/5/1936 12:00,666.81
11/6/1936 12:00,666.77
11/7/1936 12:00,666.88
11/8/1936 12:00,666.90
11/9/1936 12:00,666.89
11/10/1936 12:00,666.82
11/11/1936 12:00,666.81
11/12/1936 12:00,666.87
11/13/1936 12:00,666.83
11/14/1936 12:00,666.92
11/15/1936 12:00,667.11
11/16/1936 12:00,666.84
11/17/1936 12:00,666.84
11/18/1936 12:00,666.80
11/19/1936 12:00,666.80
11/20/1936 12:00,666.84
11/21/1936 12:00,667.23
11/22/1936 12:00,666.95
11/23/1936 12:00,666.90
11/24/1936 12:00,666.91
11/25/1936 12:00,667.15
11/26/1936 12:00,666.74
11/27/1936 12:00,666.69
11/28/1936 12:00,666.78
11/29/1936 12:00,666.67
11/30/1936 12:00,666.58
12/1/1936 12:00,666.63
12/2/1936 12:00,666.60
12/3/1936 12:00,666.63
12/4/1936 12:00,666.59
12/5/1936 12:00,666.64
12/6/1936 12:00,666.67
12/7/1936 12:00,666.60
12/8/1936 12:00,666.63
12/9/1936 12:00,666.61
12/10/1936 12:00,666.67
12/11/1936 12:00,666.72
12/12/1936 12:00,666.76
12/13/1936 12:00,666.79
12/14/1936 12:00,666.77
12/15/1936 12:00,666.77
12/16/1936 12:00,666.79
12/17/1936 12:00,666.76
12/18/1936 12:00,666.69
12/19/1936 12:00,666.67
12/20/1936 12:00,666.70
12/21/1936 12:00,666.66
12/22/1936 12:00,666.60
12/23/1936 12:00,666.60
12/24/1936 12:00,666.62
12/25/1936 12:00,666.69
12/26/1936 12:00,666.75
12/27/1936 12:00,666.55
12/28/1936 12:00,666.54
12/29/1936 12:00,666.60
12/30/1936 12:00,666.70
12/31/1936 12:00,666.63
1/1/1937 12:00,666.50
1/2/1937 12:00,666.58
1/3/1937 12:00,666.49
1/4/1937 12:00,666.52
1/5/1937 12:00,666.57
1/6/1937 12:00,666.58
1/7/1937 12:00,666.63
1/8/1937 12:00,666.59
1/9/1937 12:00,666.53
1/10/1937 12:00,666.54
1/11/1937 12:00,666.54
1/12/1937 12:00,666.56
1/13/1937 12:00,666.54
1/14/1937 12:00,666.60
1/15/1937 12:00,666.59
1/16/1937 12:00,666.55
1/17/1937 12:00,666.62
1/18/1937 12:00,666.62
1/19/1937 12:00,666.58
1/20/1937 12:00,666.56
1/21/1937 12:00,666.61
1/22/1937 12:00,666.62
1/23/1937 12:00,666.61
1/24/1937 12:00,666.62
1/25/1937 12:00,666.64
1/26/1937 12:00,666.58
1/27/1937 12:00,666.56
1/28/1937 12:00,666.60
1/29/1937 12:00,666.60
1/30/1937 12:00,666.63
1/31/1937 12:00,666.63
2/1/1937 12:00,666.60
2/2/1937 12:00,666.55
2/3/1937 12:00,666.56
2/4/1937 12:00,666.60
2/5/1937 12:00,666.59